Milwaukee, WI

8:01 AM CDT on September 19, 2017 (GMT -0500)
Gen Mitchell International

Weather History for KMKE - February, 2014

Change the Weather History Date:

Thursday, February 20, 2014

  Actual Average Record
Temperature  
Mean Temperature 38 °F 27 °F  
Max Temperature 42 °F 34 °F 60 °F (1930)
Min Temperature 33 °F 21 °F -9 °F (1959)
Degree Days  
Heating Degree Days 27 38  
Month to date heating degree days 963 803  
Since 1 July heating degree days 5266 4688  
Cooling Degree Days 0 0  
Month to date cooling degree days 0 0  
Year to date cooling degree days 0 0  
Moisture  
Dew Point 33 °F    
Average Humidity 88    
Maximum Humidity 100    
Minimum Humidity 75    
Precipitation  
Precipitation 0.63 in 0.06 in 1.22 in (1898)
Month to date precipitation 1.54 1.13  
Year to date precipitation 2.65 2.89  
Snow  
Snow 0.30 in 0.30 in 14.40 in (1898)
Month to date snowfall 14.7 7.1  
Since 1 July snowfall 55.6 35.1  
Snow Depth 11.00 in    
Sea Level Pressure  
Sea Level Pressure 29.52 in    
Wind  
Wind Speed 18 mph (SE)    
Max Wind Speed 36 mph    
Max Gust Speed 45 mph    
Visibility 4 miles    
Events Fog , Rain , Snow , Thunderstorm    
T = Trace of Precipitation, MM = Missing Value Source: NWS Daily Summary

Daily Weather History Graph

Daily Weather History Graph

Search for Another Location

Airport or City:

Trip Planner

Search our weather history database for the weather conditions in past years. The results will help you decide how hot, cold, wet, or windy it might be!

Date:

Astronomy

Feb. 20, 2014 Rise Set
Actual Time 6:41 AM CST 5:29 PM CST
Civil Twilight 6:12 AM CST 5:58 PM CST
Nautical Twilight 5:39 AM CST 6:31 PM CST
Astronomical Twilight 5:07 AM CST 7:04 PM CST
Moon 11:33 PM CST (2/20) 9:15 AM CST (2/20)
Length of Visible Light 11h 45m
Length of Day
10h 47m
Waning Gibbous, 70% of the Moon is Illuminated
Feb 20
Waning Gibbous
Feb 22
Last Quarter
Mar 1
New
Mar 8
First Quarter
Mar 16
Full

Hourly Weather History & Observations

Time (CST) Temp. Windchill Dew Point Humidity Pressure Visibility Wind Dir Wind Speed Gust Speed Precip Events Conditions
12:52 AM 34.0 °F 28.0 °F 27.0 °F 75% 29.93 in 8.0 mi SSE 6.9 mph - N/A   Overcast
1:52 AM 34.0 °F 28.8 °F 28.0 °F 79% 29.91 in 6.0 mi SSE 5.8 mph - N/A   Haze
2:52 AM 34.0 °F 28.8 °F 28.9 °F 82% 29.87 in 5.0 mi ESE 5.8 mph - N/A   Haze
3:52 AM 34.0 °F 27.2 °F 30.0 °F 85% 29.85 in 6.0 mi South 8.1 mph - N/A   Overcast
4:52 AM 35.1 °F 25.9 °F 30.9 °F 85% 29.84 in 4.0 mi SSE 13.8 mph - 0.03 in Rain Light Rain
5:04 AM 34.0 °F 25.5 °F 30.9 °F 89% 29.81 in 3.0 mi SSE 11.5 mph - 0.02 in Rain , Snow Light Rain
5:12 AM 34.0 °F 26.0 °F 30.9 °F 89% 29.80 in 3.0 mi SE 10.4 mph - 0.03 in Rain Rain
5:37 AM 34.0 °F 25.5 °F 32.0 °F 92% 29.79 in 2.0 mi SE 11.5 mph - 0.11 in Rain Rain
5:47 AM 33.8 °F 25.8 °F 32.0 °F 93% 29.79 in 2.0 mi SSE 10.4 mph - 0.13 in Rain Rain
5:52 AM 34.0 °F 26.0 °F 32.0 °F 92% 29.81 in 2.0 mi SE 10.4 mph - 0.15 in Rain Rain
6:09 AM 34.0 °F 26.6 °F 32.0 °F 92% 29.79 in 1.0 mi SSE 9.2 mph - 0.06 in Rain Rain
6:52 AM 33.1 °F 26.1 °F 32.0 °F 96% 29.78 in 2.0 mi ESE 8.1 mph - 0.20 in Snow Light Snow
7:01 AM 34.0 °F 28.0 °F 32.0 °F 92% 29.76 in 3.0 mi ESE 6.9 mph - 0.02 in Rain Light Rain
7:08 AM 34.0 °F 26.0 °F 33.1 °F 96% 29.76 in 5.0 mi ESE 10.4 mph - 0.02 in Rain Light Rain
7:36 AM 35.1 °F 25.9 °F 33.1 °F 92% 29.74 in 6.0 mi East 13.8 mph - 0.03 in Rain Light Rain
7:52 AM 35.1 °F 27.4 °F 33.1 °F 92% 29.78 in 5.0 mi East 10.4 mph - 0.04 in Rain Light Rain
8:10 AM 35.1 °F 25.2 °F 33.1 °F 92% 29.75 in 3.0 mi ESE 16.1 mph - 0.01 in Rain Light Rain
8:17 AM 35.1 °F 25.5 °F 33.1 °F 92% 29.75 in 2.0 mi ESE 15.0 mph - 0.02 in Rain Light Rain
8:43 AM 35.1 °F 25.2 °F 33.1 °F 92% 29.73 in 2.0 mi East 16.1 mph - 0.03 in Rain Light Rain
8:52 AM 35.1 °F 24.5 °F 33.1 °F 92% 29.75 in 2.0 mi East 18.4 mph - 0.03 in Rain Light Rain
8:54 AM 35.1 °F 24.5 °F 33.1 °F 92% 29.72 in 1.8 mi East 18.4 mph - 0.00 in Rain Light Rain
9:04 AM 35.1 °F 24.5 °F 33.1 °F 92% 29.70 in 2.5 mi East 18.4 mph - 0.00 in Rain Light Rain
9:31 AM 34.0 °F 21.8 °F 32.0 °F 92% 29.67 in 4.0 mi East 23.0 mph 32.2 mph 0.00 in Rain Light Rain
9:52 AM 34.0 °F 22.7 °F 30.9 °F 89% 29.68 in 5.0 mi East 19.6 mph 31.1 mph 0.00 in   Overcast
10:35 AM 34.0 °F 22.4 °F 32.0 °F 92% 29.62 in 4.0 mi East 20.7 mph 29.9 mph 0.00 in Rain Light Rain
10:52 AM 34.0 °F 22.7 °F 32.0 °F 92% 29.64 in 4.0 mi East 19.6 mph - 0.00 in Rain Light Rain
11:52 AM 34.0 °F 22.1 °F 32.0 °F 92% 29.62 in 6.0 mi East 21.9 mph 28.8 mph 0.00 in   Overcast
12:52 PM 34.0 °F 23.0 °F 32.0 °F 92% 29.57 in 3.0 mi East 18.4 mph - 0.02 in Rain Light Rain
1:17 PM 34.0 °F 22.7 °F 32.0 °F 92% 29.51 in 3.0 mi East 19.6 mph - 0.02 in Rain Light Rain
1:52 PM 34.0 °F 23.0 °F 32.0 °F 92% 29.48 in 3.0 mi East 18.4 mph - 0.05 in Rain Light Rain
2:23 PM 34.0 °F 22.7 °F 33.1 °F 96% 29.44 in 2.0 mi East 19.6 mph - 0.00 in   Overcast
2:52 PM 34.0 °F 23.0 °F 33.1 °F 96% 29.44 in 2.0 mi East 18.4 mph - 0.00 in   Overcast
3:13 PM 34.0 °F 23.0 °F 33.1 °F 96% 29.41 in 0.5 mi ESE 18.4 mph 27.6 mph N/A   Overcast
3:52 PM 34.0 °F 21.5 °F 33.1 °F 96% 29.38 in 0.5 mi ESE 24.2 mph 31.1 mph 0.01 in Rain Light Rain
4:52 PM 35.1 °F 23.3 °F 34.0 °F 96% 29.29 in 0.5 mi ESE 23.0 mph 32.2 mph 0.02 in Rain Light Rain
5:52 PM 36.0 °F 24.4 °F 35.1 °F 97% 29.28 in 0.5 mi SE 23.0 mph 31.1 mph 0.01 in Rain , Thunderstorm Light Thunderstorms and Rain
6:02 PM 36.0 °F 24.7 °F 35.1 °F 97% 29.25 in 1.0 mi SE 21.9 mph 28.8 mph 0.02 in Rain , Thunderstorm Light Thunderstorms and Rain
6:16 PM 36.0 °F 25.6 °F 35.1 °F 97% 29.22 in 1.0 mi SE 18.4 mph - 0.05 in Rain Rain
6:37 PM 36.0 °F 25.6 °F 35.1 °F 97% 29.19 in 0.5 mi SE 18.4 mph - 0.06 in Fog , Rain Light Rain
6:48 PM 37.4 °F 27.8 °F 35.6 °F 93% 29.18 in 0.2 mi SE 17.3 mph - 0.06 in Fog , Rain Light Rain
6:52 PM 37.0 °F 27.7 °F 36.0 °F 96% 29.21 in 0.2 mi SE 16.1 mph - 0.06 in Fog , Rain Light Rain
7:01 PM 37.0 °F 27.0 °F 36.0 °F 96% 29.18 in 0.2 mi SE 18.4 mph - 0.00 in Fog , Rain Light Rain
7:33 PM 39.9 °F 32.9 °F 39.0 °F 97% 29.15 in 0.2 mi South 11.5 mph 24.2 mph 0.01 in Fog Fog
7:52 PM 41.0 °F 31.9 °F 41.0 °F 100% 29.17 in 0.2 mi South 19.6 mph 25.3 mph 0.01 in   Overcast
8:00 PM 42.1 °F 32.6 °F 41.0 °F 96% 29.15 in 7.0 mi SSW 23.0 mph 31.1 mph N/A   Overcast
8:07 PM 42.1 °F 33.1 °F 41.0 °F 96% 29.15 in 8.0 mi SSW 20.7 mph 33.4 mph N/A   Overcast
8:50 PM 37.4 °F 25.4 °F 35.6 °F 93% 29.19 in 9.0 mi SW 27.6 mph 42.6 mph 0.00 in Rain Light Rain
8:52 PM 37.0 °F 24.5 °F 34.0 °F 89% 29.21 in 9.0 mi SSW 29.9 mph 39.1 mph 0.00 in Rain Light Rain
9:34 PM 36.0 °F 23.0 °F 30.9 °F 82% 29.18 in 10.0 mi SW 29.9 mph 40.3 mph 0.00 in   Overcast
9:52 PM 37.0 °F 25.1 °F 30.9 °F 79% 29.20 in 10.0 mi SW 26.5 mph 39.1 mph 0.00 in   Overcast
10:52 PM 36.0 °F 24.7 °F 30.0 °F 79% 29.20 in 10.0 mi SW 21.9 mph 44.9 mph N/A   Mostly Cloudy
11:52 PM 36.0 °F 23.2 °F 30.0 °F 79% 29.21 in 10.0 mi WSW 28.8 mph 39.1 mph N/A   Overcast